Pittsfield, IL

9:13 AM CDT on September 20, 2017 (GMT -0500)
Pittsfield Penstone Municipal

Weather History for KPPQ - August, 2014

Change the Weather History Date:

Tuesday, August 26, 2014

  Actual Average (KUIN) Record (KUIN)
Temperature  
Mean Temperature 84 °F -  
Max Temperature 91 °F 84 °F 105 °F (1936)
Min Temperature 76 °F 64 °F 46 °F (1910)
Cooling Degree Days 18    
Growing Degree Days 34 (Base 50)    
Moisture  
Dew Point 75 °F    
Average Humidity 76    
Maximum Humidity 91    
Minimum Humidity 58    
Precipitation  
Precipitation 0.00 in - - ()
Sea Level Pressure  
Sea Level Pressure 30.08 in    
Wind  
Wind Speed 4 mph (SSW)    
Max Wind Speed 8 mph    
Max Gust Speed -    
Visibility 9 miles    
Events      
Averages and records for this station are not official NWS values.
T = Trace of Precipitation, MM = Missing Value Source: NWS Daily Summary

Daily Weather History Graph

Daily Weather History Graph

Search for Another Location

Airport or City:

Trip Planner

Search our weather history database for the weather conditions in past years. The results will help you decide how hot, cold, wet, or windy it might be!

Date:

Astronomy

Aug. 26, 2014 Rise Set
Actual Time 6:25 AM CDT 7:43 PM CDT
Civil Twilight 5:57 AM CDT 8:11 PM CDT
Nautical Twilight 5:24 AM CDT 8:44 PM CDT
Astronomical Twilight 4:48 AM CDT 9:19 PM CDT
Moon 7:26 AM CDT (8/26) 8:05 PM CDT (8/26)
Length of Visible Light 14h 13m
Length of Day
13h 17m
New Moon, 1% of the Moon is Illuminated
Aug 26
New Moon
Sep 2
First Quarter
Sep 8
Full
Sep 15
Last Quarter
Sep 24
New

Hourly Weather History & Observations

Time (CDT) Temp. Heat Index Dew Point Humidity Pressure Visibility Wind Dir Wind Speed Gust Speed Precip Events Conditions
12:15 AM 79.9 °F - 75.4 °F 86% 30.05 in 10.0 mi South 4.6 mph - N/A   Mostly Cloudy
12:35 AM 80.2 °F 85.7 °F 75.6 °F 86% 30.05 in 10.0 mi Calm Calm - N/A   Mostly Cloudy
12:55 AM 80.6 °F 86.6 °F 76.1 °F 86% 30.06 in 10.0 mi South 3.5 mph - N/A   Overcast
1:15 AM 79.9 °F - 75.9 °F 88% 30.06 in 7.0 mi SE 5.8 mph - N/A   Scattered Clouds
1:35 AM 79.9 °F - 75.7 °F 87% 30.05 in 7.0 mi SE 4.6 mph - N/A   Clear
1:55 AM 79.0 °F - 75.6 °F 89% 30.05 in 7.0 mi SE 4.6 mph - N/A   Clear
2:15 AM 78.8 °F - 75.4 °F 89% 30.04 in 7.0 mi SSE 5.8 mph - N/A   Clear
2:35 AM 78.4 °F - 75.4 °F 90% 30.04 in 5.0 mi SE 5.8 mph - N/A   Clear
2:55 AM 78.4 °F - 75.4 °F 90% 30.03 in 5.0 mi SSE 5.8 mph - N/A   Clear
3:15 AM 78.3 °F - 75.2 °F 90% 30.03 in 5.0 mi South 3.5 mph - N/A   Clear
3:35 AM 78.1 °F - 75.2 °F 91% 30.03 in 5.0 mi South 4.6 mph - N/A   Clear
3:55 AM 77.9 °F - 74.8 °F 90% 30.04 in 7.0 mi SW 3.5 mph - N/A   Clear
4:15 AM 78.3 °F - 74.8 °F 89% 30.05 in 7.0 mi WSW 3.5 mph - N/A   Clear
4:35 AM 78.1 °F - 74.3 °F 88% 30.05 in 7.0 mi SW 3.5 mph - N/A   Clear
4:55 AM 78.4 °F - 73.8 °F 85% 30.06 in 10.0 mi SW 3.5 mph - N/A   Clear
5:15 AM 78.8 °F - 73.4 °F 83% 30.06 in 10.0 mi WSW 4.6 mph - N/A   Clear
5:35 AM 77.9 °F - 73.2 °F 85% 30.07 in 10.0 mi SSW 4.6 mph - N/A   Clear
5:55 AM 77.9 °F - 72.9 °F 84% 30.07 in 10.0 mi SW 4.6 mph - N/A   Clear
6:15 AM 77.9 °F - 72.7 °F 84% 30.08 in 10.0 mi SSW 4.6 mph - N/A   Clear
6:35 AM 77.9 °F - 72.7 °F 84% 30.09 in 10.0 mi South 4.6 mph - N/A   Clear
6:55 AM 76.6 °F - 72.5 °F 87% 30.09 in 7.0 mi South 4.6 mph - N/A   Clear
7:15 AM 77.0 °F - 72.9 °F 87% 30.10 in 7.0 mi SSE 4.6 mph - N/A   Clear
7:35 AM 77.9 °F - 73.6 °F 86% 30.10 in 7.0 mi SE 4.6 mph - N/A   Clear
7:55 AM 79.0 °F - 74.1 °F 85% 30.10 in 7.0 mi SSE 4.6 mph - N/A   Clear
8:15 AM 80.1 °F 84.6 °F 74.3 °F 82% 30.10 in 10.0 mi South 4.6 mph - N/A   Clear
8:35 AM 81.9 °F 88.0 °F 74.3 °F 78% 30.10 in 10.0 mi South 5.8 mph - N/A   Clear
8:55 AM 83.3 °F 90.5 °F 74.7 °F 75% 30.10 in 10.0 mi South 4.6 mph - N/A   Scattered Clouds
9:15 AM 84.2 °F 92.3 °F 75.2 °F 74% 30.11 in 10.0 mi SW 6.9 mph - N/A   Scattered Clouds
9:35 AM 84.2 °F 92.3 °F 75.2 °F 74% 30.11 in 10.0 mi WSW 4.6 mph - N/A   Scattered Clouds
9:55 AM 84.7 °F 91.4 °F 73.2 °F 68% 30.11 in 10.0 mi West 6.9 mph - N/A   Clear
10:15 AM 84.4 °F 90.3 °F 72.1 °F 67% 30.11 in 10.0 mi WNW 5.8 mph - N/A   Clear
10:35 AM 84.0 °F 89.9 °F 72.3 °F 68% 30.11 in 10.0 mi WNW 4.6 mph - N/A   Clear
10:55 AM 84.2 °F 89.9 °F 72.3 °F 67% 30.11 in 10.0 mi NW 6.9 mph - N/A   Clear
11:15 AM 84.0 °F 89.9 °F 72.5 °F 68% 30.11 in 10.0 mi WNW 4.6 mph - N/A   Clear
11:35 AM 84.9 °F 91.8 °F 73.4 °F 68% 30.12 in 10.0 mi North 5.8 mph - N/A   Clear
11:55 AM 85.3 °F 92.2 °F 73.4 °F 67% 30.12 in 10.0 mi North 3.5 mph - N/A   Mostly Cloudy
12:15 PM 86.4 °F 94.2 °F 73.9 °F 66% 30.12 in 10.0 mi North 3.5 mph - N/A   Mostly Cloudy
12:35 PM 87.1 °F 96.8 °F 75.2 °F 68% 30.11 in 10.0 mi West 4.6 mph - N/A   Scattered Clouds
12:55 PM 85.3 °F 93.4 °F 74.7 °F 70% 30.11 in 10.0 mi Calm Calm - N/A   Mostly Cloudy
1:15 PM 87.8 °F 97.6 °F 75.2 °F 66% 30.11 in 10.0 mi Calm Calm - N/A   Mostly Cloudy
1:35 PM 87.6 °F 97.1 °F 75.0 °F 66% 30.11 in 10.0 mi ESE 3.5 mph - N/A   Scattered Clouds
1:55 PM 88.5 °F 98.3 °F 75.0 °F 64% 30.10 in 10.0 mi SSE 4.6 mph - N/A   Scattered Clouds
2:15 PM 89.1 °F 98.5 °F 74.7 °F 62% 30.09 in 10.0 mi SE 4.6 mph - N/A   Clear
2:35 PM 88.9 °F 98.6 °F 74.8 °F 63% 30.08 in 10.0 mi Calm Calm - N/A   Clear
2:55 PM 89.2 °F 99.5 °F 75.2 °F 63% 30.08 in 10.0 mi SSE 3.5 mph - N/A   Clear
3:15 PM 89.8 °F 99.7 °F 74.8 °F 61% 30.07 in 10.0 mi Calm Calm - N/A   Clear
3:35 PM 90.7 °F 101.9 °F 75.7 °F 61% 30.06 in 10.0 mi SE 3.5 mph - N/A   Clear
3:55 PM 90.5 °F 102.1 °F 75.9 °F 62% 30.05 in 10.0 mi Calm Calm - N/A   Clear
4:15 PM 90.5 °F 100.9 °F 74.7 °F 60% 30.05 in 10.0 mi SSE 3.5 mph - N/A   Clear
4:35 PM 90.9 °F 102.4 °F 75.7 °F 61% 30.05 in 10.0 mi SW 3.5 mph - N/A   Clear
4:55 PM 91.0 °F 101.0 °F 74.3 °F 58% 30.05 in 10.0 mi Calm Calm - N/A   Clear
5:15 PM 90.5 °F 100.9 °F 74.7 °F 60% 30.05 in 10.0 mi Calm Calm - N/A   Clear
5:35 PM 91.2 °F 103.3 °F 75.9 °F 61% 30.05 in 10.0 mi Calm Calm - N/A   Scattered Clouds
5:55 PM 89.2 °F 100.1 °F 75.7 °F 64% 30.05 in 10.0 mi Calm Calm - N/A   Mostly Cloudy
6:15 PM 89.6 °F 101.6 °F 76.5 °F 65% 30.05 in 10.0 mi North 5.8 mph - N/A   Mostly Cloudy
6:35 PM 88.2 °F 99.5 °F 76.5 °F 68% 30.05 in 10.0 mi North 3.5 mph - N/A   Scattered Clouds
6:55 PM 87.4 °F 99.2 °F 77.0 °F 71% 30.06 in 10.0 mi North 3.5 mph - N/A   Mostly Cloudy
7:15 PM 86.7 °F 98.3 °F 77.2 °F 73% 30.06 in 10.0 mi Calm Calm - N/A   Mostly Cloudy
7:35 PM 85.3 °F 95.8 °F 77.0 °F 76% 30.06 in 10.0 mi Calm Calm - N/A   Scattered Clouds
7:55 PM 84.2 °F 93.8 °F 76.8 °F 78% 30.05 in 7.0 mi NW 5.8 mph - N/A   Clear
8:15 PM 82.8 °F 91.0 °F 76.3 °F 81% 30.06 in 10.0 mi NNW 3.5 mph - N/A   Clear
8:35 PM 82.0 °F 89.4 °F 76.1 °F 82% 30.07 in 10.0 mi NNW 5.8 mph - N/A   Clear
8:55 PM 81.3 °F 87.0 °F 74.1 °F 79% 30.08 in 10.0 mi North 8.1 mph - N/A   Clear
9:15 PM 80.2 °F 84.7 °F 73.6 °F 80% 30.08 in 10.0 mi North 4.6 mph - N/A   Clear
9:35 PM 79.3 °F - 73.4 °F 82% 30.09 in 10.0 mi North 5.8 mph - N/A   Clear
9:55 PM 78.8 °F - 72.9 °F 82% 30.10 in 10.0 mi NNE 5.8 mph - N/A   Clear
10:15 PM 78.3 °F - 72.7 °F 83% 30.10 in 10.0 mi NNE 4.6 mph - N/A   Scattered Clouds
10:35 PM 77.9 °F - 72.5 °F 83% 30.10 in 10.0 mi North 3.5 mph - N/A   Scattered Clouds
11:15 PM 77.2 °F - 72.5 °F 85% 30.12 in 10.0 mi NE 3.5 mph - N/A   Mostly Cloudy
11:35 PM 77.2 °F - 72.5 °F 85% 30.12 in 10.0 mi Calm Calm - N/A   Overcast
11:55 PM 77.2 °F - 72.5 °F 85% 30.12 in 10.0 mi Calm Calm - N/A   Overcast